Home   Weather   Santa Fe   Past weeks

Flag for USA Past Weather in Santa Fe, New Mexico, USA — Yesterday and Last 2 Weeks

Now
53 °F

Overcast.


Feels Like: 48 °F
Forecast: 39 / 53 °F
Wind: 20 mph from West

Location: Santa Fe County Municipal Airport

Current Time: Apr 25, 2017 at 6:43:37 am

Latest Report: Apr 25, 2017 at 5:53 am


Visibility: 10 mi

Pressure: 29.41 "Hg (22.77 "Hg at 2132m altitude)

Humidity: 39%

Dew Point: 29 °F

Location of Santa FeLocation

Past Weather in Santa Fe — Graph

°F

Santa Fe Temperature Yesterday

Maximum temperature yesterday: 76 °F (at 2:53 pm)
Minimum temperature yesterday: 42 °F (at 6:53 am)
Average temperature yesterday: 62 °F

High & Low Weather Summary for the Past Weeks

 TemperatureHumidityPressure
High78 °F (Apr 18, 4:53 pm)100% (Apr 13, 2:53 am)30.14 "Hg (Apr 13, 2:53 am)
Low32 °F (Apr 10, 4:53 am)5% (Apr 16, 3:53 pm)29.39 "Hg (Apr 25, 3:53 am)
Average57 °F34%29.87 "Hg
* Reported Apr 10 4:53 am — Apr 25 4:53 am, Santa Fe, Weather by CustomWeather, © 2017

Note: Actual official high and low records may vary slightly from our data, if they occured in-between our weather recording intervals... More about our weather records

Advertising

Santa Fe Weather History for the Previous 24 Hours

Scroll right to see more
 ConditionsComfort  
Time TempWeatherWind HumidityBarometerVisibility
4:53 am
Tue, Apr 25
54 °FLight rain. Mostly cloudy.18 mph41%29.41 "Hg10 mi
3:53 am57 °FOvercast.17 mph25%29.39 "Hg10 mi
2:53 am56 °FPassing clouds.8 mph26%29.41 "Hg10 mi
1:53 am57 °FOvercast.8 mph28%29.43 "Hg10 mi
12:53 am58 °FPassing clouds.14 mph30%29.44 "Hg10 mi
11:53 pm
Mon, Apr 24
61 °FPassing clouds.22 mph22%29.43 "Hg10 mi
10:53 pm63 °FPassing clouds.15 mph19%29.42 "Hg10 mi
9:53 pm65 °FPassing clouds.16 mph16%29.43 "Hg10 mi
8:53 pm65 °FPassing clouds.12 mph16%29.43 "Hg10 mi
7:53 pm66 °FClear.14 mph16%29.43 "Hg10 mi
6:53 pm70 °FSunny.23 mph13%29.47 "Hg10 mi
5:53 pm72 °FSunny.22 mph12%29.46 "Hg10 mi
4:53 pm74 °FSunny.25 mph10%29.44 "Hg10 mi
3:53 pm74 °FSunny.25 mph11%29.48 "Hg10 mi
2:53 pm76 °FSunny.24 mph10%29.50 "Hg10 mi
1:53 pm74 °FSunny.22 mph12%29.55 "Hg10 mi
12:53 pm73 °FSunny.24 mph11%29.58 "Hg10 mi
11:53 am71 °FSunny.24 mph14%29.61 "Hg10 mi
10:53 am70 °FSunny.18 mph16%29.63 "Hg10 mi
9:53 am65 °FSunny.12 mph23%29.66 "Hg10 mi
8:53 am61 °FSunny.12 mph26%29.66 "Hg10 mi
7:53 am56 °FSunny.3 mph36%29.67 "Hg10 mi
6:53 am42 °FSunny.5 mph60%29.71 "Hg10 mi
Weather by CustomWeather, © 2017

See weather overviewHow to use our weather pages